Latrobe, PA

11:15 AM EDT on August 23, 2019 (GMT -0400)
Arnold Palmer Regional

Weather History for KLBE - July, 2019

Change the Weather History Date:

Tuesday, July 16, 2019

  Actual Average Record
Temperature  
Mean Temperature 75 °F -  
Max Temperature 84 °F 81 °F 96 °F (1999)
Min Temperature 66 °F 60 °F 50 °F (2015)
Cooling Degree Days 10    
Growing Degree Days 25 (Base 50)    
Moisture  
Dew Point 69 °F    
Average Humidity 87    
Maximum Humidity 100    
Minimum Humidity 62    
Precipitation  
Precipitation 0.00 in - - ()
Sea Level Pressure  
Sea Level Pressure 30.09 in    
Wind  
Wind Speed 3 mph (SSW)    
Max Wind Speed 16 mph    
Max Gust Speed -    
Visibility 10 miles    
Events      
Averages and records for this station are not official NWS values.
T = Trace of Precipitation, MM = Missing Value Source: NWS Daily Summary

Daily Weather History Graph

Daily Weather History Graph

Search for Another Location

Airport or City:

Astronomy

Jul. 16, 2019 Rise Set
Actual Time 6:01 AM EDT 8:45 PM EDT
Civil Twilight 5:29 AM EDT 9:17 PM EDT
Nautical Twilight 4:49 AM EDT 9:57 PM EDT
Astronomical Twilight 4:03 AM EDT 10:43 PM EDT
Moon 8:50 PM EDT (7/16) 5:37 AM EDT (7/16)
Length of Visible Light 15h 48m
Length of Day
14h 44m
Full, 100% of the Moon is Illuminated
Jul 16
Full
Jul 16
Full
Jul 24
Last Quarter
Jul 31
New
Aug 7
First Quarter

Hourly Weather History & Observations

Time (EDT) Temp. Heat Index Dew Point Humidity Pressure Visibility Wind Dir Wind Speed Gust Speed Precip Events Conditions
12:15 AM 68.0 °F - 68.0 °F 100% 30.11 in 10.0 mi Calm Calm - N/A   Clear
12:35 AM 68.0 °F - 68.0 °F 100% 30.11 in 10.0 mi Calm Calm - N/A   Clear
12:55 AM 66.2 °F - 66.2 °F 100% 30.11 in 10.0 mi Calm Calm - N/A   Clear
1:15 AM - - - N/A% 30.11 in 10.0 mi Calm Calm - N/A   Clear
1:35 AM 66.2 °F - 66.2 °F 100% 30.11 in 10.0 mi Calm Calm - N/A   Clear
1:55 AM 66.2 °F - 66.2 °F 100% 30.11 in 10.0 mi Calm Calm - N/A   Clear
2:15 AM 66.2 °F - 66.2 °F 100% 30.11 in 10.0 mi Calm Calm - N/A   Clear
2:35 AM 66.2 °F - 66.2 °F 100% 30.10 in 10.0 mi Calm Calm - N/A   Clear
2:55 AM 66.2 °F - 66.2 °F 100% 30.10 in 10.0 mi SW 3.5 mph - N/A   Clear
3:15 AM - - - N/A% 30.10 in 10.0 mi Calm Calm - N/A   Clear
3:35 AM 68.0 °F - 68.0 °F 100% 30.10 in 10.0 mi Calm Calm - N/A   Clear
3:55 AM 68.0 °F - 68.0 °F 100% 30.10 in 10.0 mi Calm Calm - N/A   Clear
4:35 AM 68.0 °F - 68.0 °F 100% 30.10 in 10.0 mi Calm Calm - N/A   Clear
4:55 AM 69.8 °F - 69.8 °F 100% 30.09 in 10.0 mi Calm Calm - N/A   Clear
5:15 AM 68.0 °F - 68.0 °F 100% 30.10 in 10.0 mi Calm Calm - N/A   Clear
5:35 AM 68.0 °F - 68.0 °F 100% 30.10 in 10.0 mi Calm Calm - N/A   Clear
5:55 AM 68.0 °F - 68.0 °F 100% 30.10 in 10.0 mi Calm Calm - N/A   Clear
6:45 AM 68.0 °F - 68.0 °F 100% 30.10 in 10.0 mi Calm Calm - N/A   Clear
7:45 AM 71.6 °F - 71.6 °F 100% 30.13 in 10.0 mi Calm Calm - N/A   Clear
8:45 AM 75.2 °F - 73.4 °F 94% 30.14 in 10.0 mi Calm Calm - N/A   Scattered Clouds
9:50 AM 78.8 °F - 73.4 °F 83% 30.13 in 10.0 mi SSW 11.5 mph - N/A   Mostly Cloudy
10:50 AM 80.6 °F 85.4 °F 73.4 °F 79% 30.13 in 10.0 mi SSW 11.5 mph - N/A   Partly Cloudy
11:45 AM 80.6 °F 85.4 °F 73.4 °F 79% 30.13 in 10.0 mi SSW 11.5 mph - N/A   Scattered Clouds
12:55 PM 82.4 °F 86.3 °F 69.8 °F 66% 30.13 in 10.0 mi SSW 12.7 mph - N/A   Scattered Clouds
1:45 PM 82.4 °F 87.2 °F 71.6 °F 70% 30.11 in 10.0 mi South 12.7 mph - N/A   Scattered Clouds
2:51 PM 84.2 °F 89.6 °F 71.6 °F 66% 30.09 in 10.0 mi WSW 11.5 mph - N/A   Scattered Clouds
3:51 PM 84.2 °F 89.6 °F 71.6 °F 66% 30.08 in 10.0 mi WSW 15.0 mph - N/A   Scattered Clouds
4:51 PM 84.2 °F 88.4 °F 69.8 °F 62% 30.06 in 10.0 mi WSW 16.1 mph - N/A   Partly Cloudy
5:51 PM 84.2 °F 88.4 °F 69.8 °F 62% 30.04 in 10.0 mi SSW 11.5 mph - N/A   Clear
6:51 PM 82.4 °F 86.3 °F 69.8 °F 66% 30.05 in 10.0 mi SW 6.9 mph - N/A   Clear
7:51 PM 80.6 °F 83.9 °F 69.8 °F 70% 30.05 in 10.0 mi SSW 8.1 mph - N/A   Clear
8:51 PM 78.8 °F - 69.8 °F 74% 30.04 in 10.0 mi South 5.8 mph - N/A   Clear
9:51 PM 77.0 °F - 69.8 °F 78% 30.05 in 10.0 mi South 5.8 mph - N/A   Clear
10:15 PM 75.2 °F - 71.6 °F 89% 30.06 in 10.0 mi Calm Calm - N/A   Clear
10:35 PM 73.4 °F - 69.8 °F 88% 30.06 in 10.0 mi Calm Calm - N/A   Clear
10:55 PM 73.4 °F - 69.8 °F 88% 30.06 in 10.0 mi SSW 3.5 mph - N/A   Clear
11:15 PM 77.0 °F - 68.0 °F 74% 30.06 in 10.0 mi South 4.6 mph - N/A   Clear
11:35 PM 75.2 °F - 69.8 °F 83% 30.05 in 10.0 mi Calm Calm - N/A   Clear
11:55 PM 73.4 °F - 69.8 °F 88% 30.05 in 10.0 mi SW 4.6 mph - N/A   Partly Cloudy